Find Starlink 31055

NORAD ID: 58539 Int'l Des: 2023-192 Owner: SPXS Country: US Constellation: starlink operational
LEOCIRCULAR

現在のビュー

3D地球を読み込み中...

About Starlink 31055

Starlink 31055 (NORAD 58539) is a starlink constellation satellite (v2 mini) launched Dec 8, 2023 by SPXS of US. It operates in LEO, CIRCULAR orbit with a mass of 730.00 kg.

Starlink 31055について

説明を読み込み中...

次回通過

Passes for default location (London). Set your location on the main map for personalized predictions.

高度履歴

Loading altitude history...

軌道要素

1 58539U 23192J 26170.82082699 .00001537 00000-0 56601-4 0 9995
2 58539 53.1605 306.8258 0001184 79.6560 280.4576 15.34406540141641
Epoch: Jun 19, 2026 • Age: 34 hours

現在のステータス

高度 462.8 km
速度 7.64 km/s
衛星直下点 17.85°N, 118.82°E
打ち上げ日 Dec 8, 2023
運用期間 2.5 years
タイプ internet

技術仕様

分類 Payload
質量 730.00 kg
乾燥質量 700.00 kg
総質量 730.00 kg
長さ 0.30 m
直径 4.10 m
スパン 29.00 m
形状 Box + pan
製造者 SPXS
バスタイプ Starlink V2M
フェーズステータス In Orbit
所有者/国 SPXS/US

Most Searched